This is the latest recevied weather packets stored in our database for station/object OK2ILA-13. If no packets are shown the sender has not sent any weather packets the latest 10 day(s).
| Time | Temp. | Humidity | Pressure | Rain* | Wind** | Luminosity | Snow |
|---|---|---|---|---|---|---|---|
| 1776965418 | 10.56° C | 48% | 1016.9 hPa | - | - | - | - |
| 1776964818 | 10.56° C | 47% | 1016.7 hPa | - | - | - | - |
| 1776964218 | 11.11° C | 47% | 1016.9 hPa | - | - | - | - |
| 1776963620 | 11.11° C | 46% | 1016.9 hPa | - | - | - | - |
| 1776963020 | 11.11° C | 46% | 1016.9 hPa | - | - | - | - |
| 1776962420 | 11.67° C | 45% | 1016.9 hPa | - | - | - | - |
| 1776961821 | 11.67° C | 45% | 1017 hPa | - | - | - | - |
| 1776961221 | 11.67° C | 45% | 1017.1 hPa | - | - | - | - |
| 1776960621 | 11.11° C | 45% | 1016.9 hPa | - | - | - | - |
| 1776960022 | 11.67° C | 44% | 1016.9 hPa | - | - | - | - |
| 1776959422 | 11.67° C | 43% | 1017 hPa | - | - | - | - |
| 1776958823 | 11.67° C | 43% | 1016.9 hPa | - | - | - | - |
| 1776958224 | 12.22° C | 43% | 1016.9 hPa | - | - | - | - |
| 1776957624 | 12.22° C | 44% | 1017 hPa | - | - | - | - |
| 1776957025 | 12.22° C | 42% | 1017.1 hPa | - | - | - | - |
| 1776956425 | 12.22° C | 42% | 1017 hPa | - | - | - | - |
| 1776955826 | 12.22° C | 40% | 1016.8 hPa | - | - | - | - |
| 1776955226 | 12.22° C | 39% | 1017 hPa | - | - | - | - |
| 1776954626 | 12.78° C | 39% | 1016.8 hPa | - | - | - | - |
| 1776954027 | 12.78° C | 39% | 1016.8 hPa | - | - | - | - |
| 1776953427 | 12.78° C | 38% | 1016.9 hPa | - | - | - | - |
| 1776952828 | 12.78° C | 37% | 1016.9 hPa | - | - | - | - |
| 1776952228 | 12.78° C | 35% | 1016.9 hPa | - | - | - | - |
| 1776951629 | 12.78° C | 34% | 1017 hPa | - | - | - | - |
| 1776951029 | 12.78° C | 33% | 1017 hPa | - | - | - | - |
* Rain since midnight (hover to see other rain measurements)
** Current wind speed in m/s (hover to see current wind gust speed)